"Pseudo-MPEC" for P10Lab1

Created 2019 Jan 15 11:18:12 UT using Find_Orb

Click here for an explanation of pseudo-MPECs

 
 Astrometry: 
     P10Lab1  C2018 12 18mcxwU^xG%f%^t[jk0_`dZDM]cSh2L5uAstrometryM4M\riZsI!xF51
     P10Lab1  C2018 12 186'.q5.iBwUo2+vXXr!lF$GDewX=rVSSe$YT3wdXFPcBQuT#v#!HHF51
     P10Lab1  C2018 12 187$Vo8d\:;FLaQi)(]_o8cJ:ej9ytdjeh4equ=!hHEredacted;K*F51
     P10Lab1  C2018 12 18\;rMTK!rf:A'qpbiK*kpUv4@FsM)4y0BJ1:fw/]Q*#F%07v@gd8-F51
     P10Lab1  C2019 01 07WC8h7$?F;KclickPZN*`N0K?`k-J):4;O6bm_\PY!wtLM.T2o\BtF51
     P10Lab1  C2019 01 07#t,04I$M#:#6;1B(?P:h36bir'R$*/xHpc\?AcB[fYPADL#=#q`jF51
     P10Lab1  C2019 01 07]4(56xxhereL=?5:TUM+vKWyB4J($W+76i0sW9cm7a?/[.#5cPt:F51
     P10Lab1  C2019 01 07EOe6@.Gme`V2wr+,S9/BV9=pnodF5\LZ1kqQyrEX!PUM[t%#*s@!F51
     P10Lab1  C2019 01 08m92^dd7\cUn_#l@?LnyOyroTm8?[q@Ndfor,g(J$342,MiRn/$bTF51
     P10Lab1  C2019 01 08BbA7+IXgs6+a$qmR`EI#eW2y5['_XCt41ClR=)7X-bK_J_LMV7_BF51
     P10Lab1  C2019 01 08o90*$SPVJ3G(A/-Z1Wt7_*OxLtLexplanation)F9?;,Oy0\P@-=F51

Station data:
(F51) Pan-STARRS 1, Haleakala  (N20.707235 W156.255910)  US/Hawaii.
   Observers N. Primak, A. Schultz, S. Watters, J. Thiel, T. Goggia. Measurer
   PS1 Science Consortium. 1.8-m Ritchey-Chrétien + CCD.

Orbital elements:  P10Lab1
   Perihelion 2018 Apr 13.810408 +/- 1.67 TT = 19:26:59 (JD 2458222.310408)
Epoch 2019 Jan  8.0 TT = JDT 2458491.5   Earth MOID: 0.7839   AutoNEOCP
M  66.90797235 +/- 0.7              (J2000 ecliptic)
n   0.24855334 +/- 0.00139          Peri.  283.24315 +/- 0.46
a   2.50528024 +/- 0.00935          Node    97.09830 +/- 0.09
e   0.3517589 +/- 0.00262           Incl.   23.11348 +/- 0.06
P   3.97                   H 18.4   G  0.15   U  8.3  
q 1.62402552 +/- 0.00171    Q 3.38653495 +/- 0.0189
From 11 observations 2018 Dec. 18-2019 Jan. 8; mean residual 0".11
Residuals in arcseconds: 
181218 F51  .06+  .09-    190107 F51  .02-  .07-    190108 F51  .17+  .05-    
181218 F51  .12-  .21+    190107 F51  .11-  .05+    190108 F51  .26-  .15-    
181218 F51  .06+  .01-    190107 F51  .04+  .01+    190108 F51  .09+  .19+    
181218 F51  .01-  .12-    190107 F51  .10+  .01+    

Ephemerides (geocentric):
Date (UTC) HH   RA              Dec         delta   r     elong  mag " sig PA
---- -- -- --  -------------   -----------  ------ ------ -----  --- ---- ---
2019 01 15 11  09 43 03.860   +34 28 24.94  1.5811 2.4885 151.2 22.1 3.96  69
2019 01 15 12  09 43 01.623   +34 29 02.16  1.5811 2.4887 151.2 22.1 3.99  69
2019 01 15 13  09 42 59.384   +34 29 39.37  1.5811 2.4888 151.3 22.1 4.01  69
2019 01 15 14  09 42 57.142   +34 30 16.56  1.5811 2.4890 151.3 22.1 4.04  69
2019 01 15 15  09 42 54.896   +34 30 53.75  1.5811 2.4892 151.3 22.1 4.07  69
2019 01 15 16  09 42 52.648   +34 31 30.92  1.5810 2.4893 151.4 22.1 4.09  68
2019 01 15 17  09 42 50.397   +34 32 08.08  1.5810 2.4895 151.4 22.1 4.12  68
2019 01 15 18  09 42 48.142   +34 32 45.23  1.5810 2.4896 151.4 22.1 4.15  68
2019 01 15 19  09 42 45.885   +34 33 22.36  1.5810 2.4898 151.5 22.1 4.17  68
2019 01 15 20  09 42 43.625   +34 33 59.48  1.5810 2.4900 151.5 22.1 4.20  68
2019 01 15 21  09 42 41.362   +34 34 36.59  1.5809 2.4901 151.5 22.1 4.23  68
2019 01 15 22  09 42 39.096   +34 35 13.69  1.5809 2.4903 151.6 22.1 4.26  68
2019 01 15 23  09 42 36.827   +34 35 50.77  1.5809 2.4904 151.6 22.1 4.28  68
2019 01 16 00  09 42 34.555   +34 36 27.84  1.5809 2.4906 151.6 22.1 4.31  68
2019 01 16 01  09 42 32.281   +34 37 04.90  1.5809 2.4908 151.7 22.1 4.34  68
2019 01 16 02  09 42 30.003   +34 37 41.94  1.5809 2.4909 151.7 22.1 4.36  68
2019 01 16 03  09 42 27.722   +34 38 18.97  1.5809 2.4911 151.7 22.1 4.39  68
2019 01 16 04  09 42 25.439   +34 38 55.99  1.5808 2.4912 151.8 22.1 4.42  68
2019 01 16 05  09 42 23.153   +34 39 32.99  1.5808 2.4914 151.8 22.1 4.45  68
2019 01 16 06  09 42 20.863   +34 40 09.98  1.5808 2.4916 151.8 22.1 4.47  68
2019 01 16 07  09 42 18.571   +34 40 46.96  1.5808 2.4917 151.9 22.1 4.50  68
2019 01 16 08  09 42 16.276   +34 41 23.92  1.5808 2.4919 151.9 22.1 4.53  68
2019 01 16 09  09 42 13.978   +34 42 00.87  1.5808 2.4920 151.9 22.1 4.55  68
2019 01 16 10  09 42 11.678   +34 42 37.81  1.5808 2.4922 152.0 22.1 4.58  68
2019 01 16 11  09 42 09.374   +34 43 14.73  1.5807 2.4924 152.0 22.1 4.61  68
2019 01 16 12  09 42 07.067   +34 43 51.64  1.5807 2.4925 152.0 22.1 4.64  68
2019 01 16 13  09 42 04.758   +34 44 28.54  1.5807 2.4927 152.1 22.1 4.66  68
2019 01 16 14  09 42 02.446   +34 45 05.42  1.5807 2.4928 152.1 22.1 4.69  68
2019 01 16 15  09 42 00.131   +34 45 42.29  1.5807 2.4930 152.1 22.1 4.72  68
2019 01 16 16  09 41 57.813   +34 46 19.14  1.5807 2.4932 152.2 22.1 4.75  68
2019 01 16 17  09 41 55.492   +34 46 55.98  1.5807 2.4933 152.2 22.1 4.78  68
2019 01 16 18  09 41 53.168   +34 47 32.81  1.5807 2.4935 152.2 22.1 4.80  67
2019 01 16 19  09 41 50.842   +34 48 09.62  1.5807 2.4936 152.3 22.1 4.83  67
2019 01 16 20  09 41 48.512   +34 48 46.42  1.5807 2.4938 152.3 22.1 4.86  67
2019 01 16 21  09 41 46.180   +34 49 23.20  1.5807 2.4940 152.3 22.1 4.89  67
2019 01 16 22  09 41 43.845   +34 49 59.97  1.5807 2.4941 152.3 22.1 4.92  67
2019 01 16 23  09 41 41.507   +34 50 36.72  1.5807 2.4943 152.4 22.1 4.94  67
2019 01 17 00  09 41 39.167   +34 51 13.46  1.5806 2.4944 152.4 22.1 4.97  67
2019 01 17 01  09 41 36.823   +34 51 50.19  1.5806 2.4946 152.4 22.1 5.00  67
2019 01 17 02  09 41 34.477   +34 52 26.90  1.5806 2.4948 152.5 22.1 5.03  67
2019 01 17 03  09 41 32.128   +34 53 03.59  1.5806 2.4949 152.5 22.1 5.06  67
2019 01 17 04  09 41 29.776   +34 53 40.27  1.5806 2.4951 152.5 22.1 5.08  67
2019 01 17 05  09 41 27.421   +34 54 16.94  1.5806 2.4952 152.6 22.1 5.11  67
2019 01 17 06  09 41 25.064   +34 54 53.59  1.5806 2.4954 152.6 22.1 5.14  67
2019 01 17 07  09 41 22.703   +34 55 30.23  1.5806 2.4956 152.6 22.1 5.17  67
2019 01 17 08  09 41 20.340   +34 56 06.85  1.5806 2.4957 152.7 22.1 5.20  67
2019 01 17 09  09 41 17.975   +34 56 43.46  1.5806 2.4959 152.7 22.1 5.23  67
2019 01 17 10  09 41 15.606   +34 57 20.05  1.5806 2.4960 152.7 22.1 5.25  67